KI0MQ Weather Reports


time (UTC)temp
F
wind
direction
speed
knots
gust
knots
rain 1hr
in
rain 24hr
in
rain mn
in
humidity
%
barometer
mb
20260507064508 42 0 0.0 0.0 0.00 0.00 0.00 74 1014.3
20260507064003 42 0 0.0 0.0 0.00 0.00 0.00 75 1014.4
20260507063504 42 0 0.0 0.0 0.00 0.00 0.00 76 1014.4
20260507062504 42 0 0.0 0.0 0.00 0.00 0.00 76 1014.4
20260507062003 42 0 0.0 0.0 0.00 0.00 0.00 74 1014.4
20260507061508 42 0 0.0 0.0 0.00 0.00 0.00 74 1014.5
20260507061003 42 0 0.0 0.0 0.00 0.00 0.00 74 1014.4
20260507060504 42 0 0.0 0.0 0.00 0.00 0.00 74 1014.6
20260507060009 42 0 0.0 0.0 0.00 0.00 0.00 74 1014.6
20260507055503 42 0 0.0 0.0 0.00 0.00 0.00 74 1014.6
20260507055003 43 0 0.0 0.0 0.00 0.00 0.00 73 1014.6
20260507054508 43 0 0.0 0.0 0.00 0.00 0.00 74 1014.6
20260507054003 43 0 0.0 0.0 0.00 0.00 0.00 75 1014.7
20260507053503 43 0 0.0 0.0 0.00 0.00 0.00 75 1014.7
20260507053009 43 0 0.0 0.0 0.00 0.00 0.00 74 1014.7
20260507052504 43 0 0.0 0.0 0.00 0.00 0.00 74 1014.7
20260507052003 43 0 0.0 0.0 0.00 0.00 0.00 73 1014.6
20260507050504 43 0 0.0 0.0 0.00 0.00 0.00 74 1014.8
20260507050009 42 0 0.0 0.0 0.00 0.00 0.00 73 1014.8
20260507045503 42 0 0.0 0.0 0.00 0.00 0.00 73 1014.8
20260507044508 42 0 0.0 0.0 0.00 0.00 0.00 70 1014.7
20260507044003 42 0 0.0 0.0 0.00 0.00 0.00 70 1014.7
20260507043504 42 0 0.0 0.0 0.00 0.00 0.00 71 1014.8
20260507043009 42 0 0.0 0.0 0.00 0.00 0.00 70 1014.9
20260507042503 43 0 0.0 0.0 0.00 0.00 0.00 69 1015.0
20260507042003 43 0 0.0 0.0 0.00 0.00 0.00 68 1015.0
20260507041508 43 0 0.0 0.0 0.00 0.00 0.00 69 1015.0
20260507041004 44 0 0.0 0.0 0.00 0.00 0.00 69 1015.1
20260507040503 44 0 0.0 0.0 0.00 0.00 0.00 68 1015.1
20260507040008 44 0 0.0 0.0 0.00 0.00 0.00 67 1015.2
20260507035503 44 0 0.0 0.0 0.00 0.00 0.00 67 1015.2
20260507035005 44 0 0.0 0.0 0.00 0.00 0.00 66 1015.2
20260507034003 44 0 0.0 0.0 0.00 0.00 0.00 65 1015.3
20260507033504 44 0 0.0 0.0 0.00 0.00 0.00 65 1015.3
20260507033009 44 0 0.0 0.0 0.00 0.00 0.00 65 1015.3
20260507032003 45 0 0.0 0.0 0.00 0.00 0.00 62 1015.4
20260507031508 45 0 0.0 0.0 0.00 0.00 0.00 60 1015.3
20260507031003 46 0 0.0 0.0 0.00 0.00 0.00 60 1015.3
20260507030008 46 0 0.0 0.0 0.00 0.00 0.00 59 1015.3
20260507025503 47 0 0.0 0.0 0.00 0.00 0.00 57 1015.3
20260507025004 47 0 0.0 0.0 0.00 0.00 0.00 58 1015.3
20260507024508 48 0 0.0 0.0 0.00 0.00 0.00 58 1015.3
20260507024003 48 0 0.0 0.0 0.00 0.00 0.00 57 1015.3
20260507023503 48 0 0.0 0.0 0.00 0.00 0.00 55 1015.2
20260507023008 48 0 0.0 0.0 0.00 0.00 0.00 55 1015.1
20260507022504 49 0 0.0 0.0 0.00 0.00 0.00 54 1015.1
20260507022003 49 0 0.0 0.0 0.00 0.00 0.00 53 1015.1
20260507021003 50 0 0.0 0.0 0.00 0.00 0.00 51 1015.0
20260507020503 50 0 0.0 0.0 0.00 0.00 0.00 50 1015.0
20260507020009 51 0 0.0 0.0 0.00 0.00 0.00 49 1015.0
20260507015503 51 0 0.0 0.0 0.00 0.00 0.00 48 1015.0
20260507015004 52 0 0.0 0.0 0.00 0.00 0.00 47 1015.0
20260507014508 52 0 0.0 0.0 0.00 0.00 0.00 45 1014.9
20260507012503 55 0 0.0 0.0 0.00 0.00 0.00 40 1014.9
20260507012004 56 0 0.0 0.0 0.00 0.00 0.00 40 1015.0
20260507011003 57 260 0.0 0.9 0.00 0.00 0.00 36 1015.0
20260507010503 58 260 0.0 0.9 0.00 0.00 0.00 36 1014.9
20260507005003 60 260 0.0 1.7 0.00 0.00 0.00 35 1015.0
20260507004003 60 283 0.0 2.6 0.00 0.00 0.00 32 1015.0
20260507003503 60 303 0.0 2.6 0.00 0.00 0.00 33 1015.0
20260507003009 61 330 0.0 2.6 0.00 0.00 0.00 31 1015.1
20260507002503 60 320 0.9 2.6 0.00 0.00 0.00 31 1015.2
20260507002003 60 310 0.9 3.5 0.00 0.00 0.00 32 1015.2
20260507001509 60 298 0.9 3.5 0.00 0.00 0.00 32 1015.2
20260507001004 60 295 0.9 2.6 0.00 0.00 0.00 31 1015.2
20260507000505 60 336 0.9 3.5 0.00 0.00 0.00 31 1015.2
20260507000009 60 339 0.9 3.5 0.00 0.00 0.00 30 1015.3
20260506235003 61 333 1.7 4.3 0.00 0.00 0.00 30 1015.4
20260506234003 61 339 1.7 6.1 0.00 0.00 0.00 30 1015.5
20260506233503 61 341 1.7 5.2 0.00 0.00 0.00 32 1015.6
20260506232504 61 311 1.7 6.1 0.00 0.00 0.00 31 1015.5
20260506231508 61 270 0.9 2.6 0.00 0.00 0.00 34 1015.5
20260506231003 61 339 0.9 3.5 0.00 0.00 0.00 33 1015.6
20260506230504 61 315 1.7 7.0 0.00 0.00 0.00 31 1015.7
20260506230008 61 306 1.7 7.0 0.00 0.00 0.00 30 1015.7
20260506225504 61 310 0.9 6.1 0.00 0.00 0.00 31 1015.7
20260506225003 61 18 0.0 4.3 0.00 0.00 0.00 33 1015.7
20260506224508 60 332 1.7 6.1 0.00 0.00 0.00 33 1015.6
20260506224003 60 336 1.7 7.0 0.00 0.00 0.00 32 1015.7
20260506223503 60 341 0.9 7.0 0.00 0.00 0.00 32 1015.9
20260506223009 60 341 0.9 4.3 0.00 0.00 0.00 32 1015.9
20260506222503 60 319 2.6 7.8 0.00 0.00 0.00 32 1015.9
20260506222003 59 328 3.5 7.8 0.00 0.00 0.00 32 1015.9
20260506221508 60 352 1.7 7.8 0.00 0.00 0.00 31 1016.1
20260506220505 59 335 0.9 5.2 0.00 0.00 0.00 33 1016.1
20260506220008 59 332 1.7 6.1 0.00 0.00 0.00 32 1016.1
20260506215503 59 344 1.7 6.1 0.00 0.00 0.00 33 1016.2
20260506215003 59 359 1.7 5.2 0.00 0.00 0.00 34 1016.1
20260506214509 59 358 1.7 8.7 0.00 0.00 0.00 31 1016.2
20260506213503 59 319 1.7 7.8 0.00 0.00 0.00 32 1016.3
20260506213008 60 324 2.6 9.6 0.00 0.00 0.00 31 1016.4
20260506212504 60 327 2.6 9.6 0.00 0.00 0.00 31 1016.3
20260506212003 61 326 1.7 7.8 0.00 0.00 0.00 32 1016.5
20260506211004 60 327 0.9 5.2 0.00 0.00 0.00 31 1016.6
20260506210503 60 329 1.7 7.0 0.00 0.00 0.00 32 1016.6
20260506210008 60 339 1.7 8.7 0.00 0.00 0.00 32 1016.8
20260506205505 60 332 1.7 8.7 0.00 0.00 0.00 33 1016.8
20260506205004 59 323 1.7 4.3 0.00 0.00 0.00 32 1016.9
20260506204510 60 303 1.7 7.0 0.00 0.00 0.00 34 1016.9
20260506204003 60 346 1.7 7.0 0.00 0.00 0.00 31 1017.1
20260506203503 60 26 0.9 5.2 0.00 0.00 0.00 33 1017.0
20260506203009 60 350 1.7 6.1 0.00 0.00 0.00 33 1017.1
20260506202504 60 352 2.6 10.4 0.00 0.00 0.00 31 1017.2
20260506202003 60 328 2.6 10.4 0.00 0.00 0.00 32 1017.1
20260506201508 61 260 1.7 6.1 0.00 0.00 0.00 31 1017.2
20260506201003 61 290 2.6 11.3 0.00 0.00 0.00 31 1017.2
20260506200504 60 335 2.6 11.3 0.00 0.00 0.00 38 1017.2
20260506200008 59 323 1.7 8.7 0.00 0.00 0.00 33 1017.2
20260506195503 59 328 2.6 8.7 0.00 0.00 0.00 32 1017.3
20260506195003 59 336 2.6 7.0 0.00 0.00 0.00 33 1017.6
20260506194509 60 319 2.6 7.8 0.00 0.00 0.00 33 1017.5
20260506194003 60 316 3.5 9.6 0.00 0.00 0.00 32 1017.5
20260506193503 60 310 2.6 9.6 0.00 0.00 0.00 33 1017.5
20260506193009 60 273 1.7 7.0 0.00 0.00 0.00 36 1017.5
20260506192504 60 307 2.6 7.8 0.00 0.00 0.00 35 1017.5
20260506192004 59 335 1.7 7.8 0.00 0.00 0.00 34 1017.5
20260506191003 59 312 2.6 12.2 0.00 0.00 0.00 34 1017.6
20260506190503 60 313 2.6 12.2 0.00 0.00 0.00 34 1017.6
20260506190008 60 307 2.6 7.8 0.00 0.00 0.00 33 1017.7
20260506185003 59 330 2.6 8.7 0.00 0.00 0.00 34 1017.8
20260506184509 59 327 2.6 8.7 0.00 0.00 0.00 34 1017.8
20260506183503 59 290 1.7 7.8 0.00 0.00 0.00 34 1017.8
20260506183008 58 287 1.7 7.8 0.00 0.00 0.00 35 1017.9
20260506182504 57 304 1.7 6.1 0.00 0.00 0.00 36 1018.0
20260506182003 58 298 1.7 7.0 0.00 0.00 0.00 38 1018.1
20260506181509 58 270 1.7 7.0 0.00 0.00 0.00 38 1018.0
20260506181004 58 354 2.6 9.6 0.00 0.00 0.00 42 1018.1
20260506180503 56 9 3.5 9.6 0.00 0.00 0.00 37 1018.2
20260506180009 55 5 2.6 9.6 0.00 0.00 0.00 38 1018.2
20260506174508 57 288 0.9 9.6 0.00 0.00 0.00 37 1018.5
20260506174004 56 301 0.9 5.2 0.00 0.00 0.00 37 1018.6
20260506173503 56 338 0.9 5.2 0.00 0.00 0.00 39 1018.6
20260506173008 56 12 0.9 5.2 0.00 0.00 0.00 44 1018.6
20260506172504 56 356 1.7 7.8 0.00 0.00 0.00 40 1018.7
20260506171003 56 309 1.7 5.2 0.00 0.00 0.00 41 1018.8
20260506170504 56 319 1.7 4.3 0.00 0.00 0.00 41 1018.9
20260506170009 55 322 1.7 5.2 0.00 0.00 0.00 40 1018.9
20260506165503 55 276 1.7 5.2 0.00 0.00 0.00 40 1019.0
20260506165003 55 270 1.7 5.2 0.00 0.00 0.00 43 1018.9
20260506164509 55 3 2.6 7.0 0.00 0.00 0.00 41 1019.0
20260506164003 54 9 2.6 7.8 0.00 0.00 0.00 42 1019.0
20260506162503 54 336 0.9 5.2 0.00 0.00 0.00 42 1019.0
20260506162003 54 311 0.9 4.3 0.00 0.00 0.00 43 1019.1
20260506161508 53 2 1.7 10.4 0.00 0.00 0.00 43 1019.1
20260506161004 52 7 2.6 10.4 0.00 0.00 0.00 45 1019.1
20260506160503 52 347 1.7 6.1 0.00 0.00 0.00 43 1019.0
20260506160008 52 342 1.7 7.0 0.00 0.00 0.00 43 1019.0
20260506155503 52 330 0.9 7.0 0.00 0.00 0.00 44 1018.9
20260506155004 52 318 0.9 4.3 0.00 0.00 0.00 51 1018.9
20260506154508 52 350 0.9 4.3 0.00 0.00 0.00 47 1018.9
20260506154004 52 10 0.9 4.3 0.00 0.00 0.00 46 1018.9
20260506153008 50 355 1.7 5.2 0.00 0.00 0.00 47 1019.1
20260506152503 50 347 1.7 5.2 0.00 0.00 0.00 47 1019.0
20260506152004 50 325 1.7 6.1 0.00 0.00 0.00 47 1019.0
20260506151508 50 332 1.7 7.0 0.00 0.00 0.00 47 1019.1
20260506151003 50 356 1.7 7.0 0.00 0.00 0.00 54 1019.0
20260506150503 50 1 1.7 5.2 0.00 0.00 0.00 49 1019.0
20260506145504 50 339 1.7 5.2 0.00 0.00 0.00 48 1019.0
20260506145004 50 317 0.9 4.3 0.00 0.00 0.00 49 1019.1
20260506144508 49 299 0.0 2.6 0.00 0.00 0.00 50 1019.0
20260506144004 49 356 0.9 3.5 0.00 0.00 0.00 52 1019.1
20260506143503 48 2 0.9 3.5 0.00 0.00 0.00 52 1019.0
20260506143009 48 7 0.9 5.2 0.00 0.00 0.00 54 1019.0
20260506142504 48 350 0.0 5.2 0.00 0.00 0.00 54 1019.0
20260506142003 48 329 0.9 2.6 0.00 0.00 0.00 55 1019.0
20260506141003 47 354 0.9 3.5 0.00 0.00 0.00 54 1018.8
20260506140503 47 321 0.0 2.6 0.00 0.00 0.00 55 1018.8
20260506135504 46 322 0.9 3.5 0.00 0.00 0.00 58 1018.7
20260506135003 45 339 0.0 1.7 0.00 0.00 0.00 59 1018.8
20260506134003 45 328 0.0 2.6 0.00 0.00 0.00 60 1018.6
20260506133504 44 333 0.9 2.6 0.00 0.00 0.00 62 1018.6
20260506133008 44 343 0.9 3.5 0.00 0.00 0.00 61 1018.5
20260506132503 44 340 0.9 4.3 0.00 0.00 0.00 62 1018.5
20260506132005 43 338 0.9 4.3 0.00 0.00 0.00 62 1018.4
20260506131508 43 350 1.7 3.5 0.00 0.00 0.00 62 1018.3
20260506131003 42 351 0.9 3.5 0.00 0.00 0.00 64 1018.3
20260506130503 42 349 0.9 2.6 0.00 0.00 0.00 64 1018.2
20260506125505 41 346 0.0 2.6 0.00 0.00 0.00 68 1018.2
20260506125003 40 312 0.0 1.7 0.00 0.00 0.00 69 1018.2
20260506124508 40 306 0.0 1.7 0.00 0.00 0.00 71 1018.2
20260506124004 39 287 0.0 1.7 0.00 0.00 0.00 72 1018.1
20260506123503 39 285 0.0 2.6 0.00 0.00 0.00 74 1018.0
20260506122003 36 350 0.0 0.9 0.00 0.00 0.00 79 1017.7
20260506121508 36 350 0.0 0.9 0.00 0.00 0.00 80 1017.7
20260506121003 36 0 0.0 0.0 0.00 0.00 0.00 81 1017.6
20260506120503 35 0 0.0 0.0 0.00 0.00 0.00 81 1017.5
20260506120008 35 0 0.0 0.0 0.00 0.00 0.00 81 1017.4
20260506115003 34 0 0.0 0.0 0.00 0.00 0.00 80 1017.2
20260506114508 34 0 0.0 0.0 0.00 0.00 0.00 79 1017.2
20260506114003 34 0 0.0 0.0 0.00 0.00 0.00 79 1017.2
20260506113503 35 0 0.0 0.0 0.00 0.00 0.00 78 1017.1
20260506113008 35 0 0.0 0.0 0.00 0.00 0.00 78 1017.1
20260506112504 35 0 0.0 0.0 0.00 0.00 0.00 77 1017.0
20260506112003 35 0 0.0 0.0 0.00 0.00 0.00 76 1016.9
20260506111003 36 0 0.0 0.0 0.00 0.00 0.00 76 1017.0
20260506110503 36 0 0.0 0.0 0.00 0.00 0.00 76 1016.9
20260506110008 36 0 0.0 0.0 0.00 0.00 0.00 76 1017.0
20260506105503 36 0 0.0 0.0 0.00 0.00 0.00 75 1017.0
20260506105003 36 0 0.0 0.0 0.00 0.00 0.00 76 1016.9
20260506104508 37 0 0.0 0.0 0.00 0.00 0.00 75 1016.9
20260506104004 37 0 0.0 0.0 0.00 0.00 0.00 75 1017.0
20260506103503 37 0 0.0 0.0 0.00 0.00 0.00 74 1016.9
20260506103008 38 0 0.0 0.0 0.00 0.00 0.00 74 1016.9
20260506102503 38 0 0.0 0.0 0.00 0.00 0.00 73 1016.9
20260506101508 39 0 0.0 0.0 0.00 0.00 0.00 75 1016.8
20260506101003 39 0 0.0 0.0 0.00 0.00 0.00 76 1016.7
20260506100503 39 0 0.0 0.0 0.00 0.00 0.00 74 1016.7
20260506100009 39 0 0.0 0.0 0.00 0.00 0.00 73 1016.7
20260506095503 39 0 0.0 0.0 0.00 0.00 0.00 73 1016.6
20260506095004 40 0 0.0 0.0 0.00 0.00 0.00 73 1016.6
20260506094509 40 0 0.0 0.0 0.00 0.00 0.00 74 1016.5
20260506094003 40 0 0.0 0.0 0.00 0.00 0.00 72 1016.6
20260506093008 40 0 0.0 0.0 0.00 0.00 0.00 71 1016.4
20260506092004 40 0 0.0 0.0 0.00 0.00 0.00 70 1016.3
20260506091005 41 0 0.0 0.0 0.00 0.00 0.00 69 1016.2
20260506090503 41 0 0.0 0.0 0.00 0.00 0.00 69 1016.1
20260506090009 41 0 0.0 0.0 0.00 0.00 0.00 68 1016.1
20260506085503 41 0 0.0 0.0 0.00 0.00 0.00 66 1016.0
20260506085003 42 0 0.0 0.0 0.00 0.00 0.00 65 1016.0
20260506084508 42 0 0.0 0.0 0.00 0.00 0.00 65 1016.0
20260506084003 42 0 0.0 0.0 0.00 0.00 0.00 64 1015.9
20260506083504 42 0 0.0 0.0 0.00 0.00 0.00 63 1015.9
20260506083008 43 0 0.0 0.0 0.00 0.00 0.00 63 1015.9
20260506082503 43 0 0.0 0.0 0.00 0.00 0.00 62 1015.9
20260506082004 43 0 0.0 0.0 0.00 0.00 0.00 62 1015.8
20260506081003 44 0 0.0 0.0 0.00 0.00 0.00 62 1015.8
20260506080503 44 0 0.0 0.0 0.00 0.00 0.00 60 1015.9
20260506073503 45 350 0.0 0.9 0.00 0.00 0.00 54 1015.6
20260506073008 46 0 0.0 0.0 0.00 0.00 0.00 52 1015.6
20260506072503 46 351 0.0 0.9 0.00 0.00 0.00 52 1015.6
20260506072003 46 350 0.0 0.9 0.00 0.00 0.00 52 1015.6
20260506071508 46 347 0.0 0.9 0.00 0.00 0.00 51 1015.6
20260506071004 46 345 0.0 0.9 0.00 0.00 0.00 52 1015.5